| time (UTC) | temp F | wind direction | speed MPH | gust MPH | rain 1hr in | rain 24hr in | rain mn in | humidity % | barometer mb |
| 20260507182106 | 51 | 104 | 3.0 | 5.0 | 0.00 | 0.00 | 0.00 | 74 | 1022.9 |
| 20260507181606 | 51 | 102 | 2.0 | 5.0 | 0.00 | 0.00 | 0.00 | 74 | 1022.9 |
| 20260507181104 | 51 | 102 | 2.0 | 6.0 | 0.00 | 0.00 | 0.00 | 74 | 1022.8 |
| 20260507180604 | 51 | 76 | 3.0 | 7.0 | 0.00 | 0.00 | 0.00 | 75 | 1022.7 |
| 20260507180104 | 51 | 79 | 4.0 | 7.0 | 0.00 | 0.00 | 0.00 | 75 | 1022.6 |
| 20260507175605 | 51 | 90 | 2.0 | 9.0 | 0.00 | 0.00 | 0.00 | 75 | 1022.6 |
| 20260507175105 | 52 | 58 | 4.0 | 9.0 | 0.00 | 0.00 | 0.00 | 75 | 1022.5 |
| 20260507174605 | 52 | 75 | 2.0 | 7.0 | 0.00 | 0.00 | 0.00 | 75 | 1022.6 |
| 20260507174104 | 52 | 110 | 3.0 | 7.0 | 0.00 | 0.00 | 0.00 | 75 | 1022.6 |
| 20260507173605 | 52 | 121 | 3.0 | 7.0 | 0.00 | 0.00 | 0.00 | 75 | 1022.6 |
| 20260507173105 | 52 | 86 | 3.0 | 6.0 | 0.00 | 0.00 | 0.00 | 75 | 1022.6 |
| 20260507172603 | 52 | 80 | 3.0 | 6.0 | 0.00 | 0.00 | 0.00 | 74 | 1022.6 |
| 20260507172103 | 52 | 94 | 2.0 | 7.0 | 0.00 | 0.00 | 0.00 | 74 | 1022.5 |
| 20260507171603 | 52 | 86 | 3.0 | 9.0 | 0.00 | 0.00 | 0.00 | 75 | 1022.5 |
| 20260507171103 | 52 | 65 | 3.0 | 11.0 | 0.00 | 0.00 | 0.00 | 74 | 1022.5 |
| 20260507170604 | 52 | 78 | 4.0 | 11.0 | 0.00 | 0.00 | 0.00 | 75 | 1022.5 |
| 20260507170104 | 52 | 48 | 4.0 | 6.0 | 0.00 | 0.00 | 0.00 | 75 | 1022.2 |
| 20260507165604 | 52 | 80 | 3.0 | 6.0 | 0.00 | 0.00 | 0.00 | 75 | 1022.5 |
| 20260507165104 | 52 | 54 | 4.0 | 6.0 | 0.00 | 0.00 | 0.00 | 75 | 1022.4 |
| 20260507164604 | 53 | 110 | 3.0 | 9.0 | 0.00 | 0.00 | 0.00 | 75 | 1022.4 |
| 20260507164103 | 53 | 82 | 5.0 | 9.0 | 0.00 | 0.00 | 0.00 | 75 | 1022.4 |
| 20260507163603 | 53 | 107 | 2.0 | 6.0 | 0.00 | 0.00 | 0.00 | 75 | 1022.4 |
| 20260507163103 | 53 | 89 | 4.0 | 6.0 | 0.00 | 0.00 | 0.00 | 75 | 1022.2 |
| 20260507162603 | 53 | 79 | 0.0 | 4.0 | 0.00 | 0.00 | 0.00 | 75 | 1022.1 |
| 20260507162103 | 53 | 103 | 2.0 | 4.0 | 0.00 | 0.00 | 0.00 | 75 | 1022.1 |
| 20260507161603 | 53 | 90 | 2.0 | 4.0 | 0.00 | 0.00 | 0.00 | 74 | 1022.1 |
| 20260507161102 | 53 | 109 | 0.0 | 0.0 | 0.00 | 0.00 | 0.00 | 73 | 1022.0 |
| 20260507160602 | 53 | 110 | 0.0 | 0.0 | 0.00 | 0.00 | 0.00 | 73 | 1022.0 |
| 20260507155603 | 53 | 110 | 0.0 | 1.0 | 0.00 | 0.00 | 0.00 | 74 | 1022.0 |
| 20260507155102 | 53 | 71 | 0.0 | 4.0 | 0.00 | 0.00 | 0.00 | 73 | 1022.0 |
| 20260507154602 | 53 | 90 | 0.0 | 4.0 | 0.00 | 0.00 | 0.00 | 75 | 1022.0 |
| 20260507154103 | 53 | 97 | 0.0 | 2.0 | 0.00 | 0.00 | 0.00 | 75 | 1022.0 |
| 20260507153602 | 52 | 97 | 0.0 | 2.0 | 0.00 | 0.00 | 0.00 | 75 | 1022.0 |
| 20260507153102 | 52 | 76 | 1.0 | 2.0 | 0.00 | 0.00 | 0.00 | 75 | 1021.8 |
| 20260507152602 | 52 | 353 | 0.0 | 1.0 | 0.00 | 0.00 | 0.00 | 73 | 1021.7 |
| 20260507152101 | 52 | 353 | 0.0 | 1.0 | 0.00 | 0.00 | 0.00 | 70 | 1021.7 |
| 20260507151602 | 51 | 295 | 0.0 | 5.0 | 0.00 | 0.00 | 0.00 | 68 | 1021.8 |
| 20260507151102 | 51 | 303 | 0.0 | 7.0 | 0.00 | 0.00 | 0.00 | 71 | 1021.7 |
| 20260507150601 | 51 | 276 | 3.0 | 7.0 | 0.00 | 0.00 | 0.00 | 73 | 1021.7 |
| 20260507150101 | 51 | 282 | 2.0 | 5.0 | 0.00 | 0.00 | 0.00 | 73 | 1021.6 |
| 20260507145601 | 51 | 259 | 0.0 | 4.0 | 0.00 | 0.00 | 0.00 | 74 | 1021.7 |
| 20260507145102 | 51 | 289 | 1.0 | 5.0 | 0.00 | 0.00 | 0.00 | 74 | 1021.7 |
| 20260507144601 | 52 | 295 | 2.0 | 6.0 | 0.00 | 0.00 | 0.00 | 73 | 1022.0 |
| 20260507144101 | 52 | 306 | 4.0 | 6.0 | 0.00 | 0.00 | 0.00 | 74 | 1022.1 |
| 20260507143600 | 53 | 341 | 0.0 | 3.0 | 0.00 | 0.00 | 0.00 | 72 | 1021.9 |
| 20260507143100 | 53 | 86 | 1.0 | 4.0 | 0.00 | 0.00 | 0.00 | 74 | 1021.9 |
| 20260507142601 | 53 | 111 | 2.0 | 5.0 | 0.00 | 0.00 | 0.00 | 74 | 1021.8 |
| 20260507142100 | 53 | 72 | 2.0 | 7.0 | 0.00 | 0.00 | 0.00 | 75 | 1021.8 |
| 20260507141600 | 53 | 52 | 2.0 | 7.0 | 0.00 | 0.00 | 0.00 | 75 | 1021.7 |
| 20260507141100 | 53 | 106 | 4.0 | 9.0 | 0.00 | 0.00 | 0.00 | 75 | 1021.6 |
| 20260507140601 | 53 | 76 | 4.0 | 10.0 | 0.00 | 0.00 | 0.00 | 75 | 1021.6 |
| 20260507140100 | 53 | 102 | 6.0 | 10.0 | 0.00 | 0.00 | 0.00 | 75 | 1021.6 |
| 20260507135600 | 53 | 80 | 5.0 | 9.0 | 0.00 | 0.00 | 0.00 | 74 | 1021.5 |
| 20260507135059 | 54 | 90 | 5.0 | 12.0 | 0.00 | 0.00 | 0.00 | 74 | 1021.6 |
| 20260507134559 | 54 | 102 | 5.0 | 12.0 | 0.00 | 0.00 | 0.00 | 74 | 1021.6 |
| 20260507134059 | 54 | 102 | 6.0 | 11.0 | 0.00 | 0.00 | 0.00 | 74 | 1021.6 |
| 20260507133600 | 53 | 78 | 6.0 | 11.0 | 0.00 | 0.00 | 0.00 | 74 | 1021.6 |
| 20260507133059 | 53 | 100 | 5.0 | 10.0 | 0.00 | 0.00 | 0.00 | 74 | 1021.7 |
| 20260507132559 | 52 | 111 | 4.0 | 7.0 | 0.00 | 0.00 | 0.00 | 73 | 1021.6 |
| 20260507132059 | 52 | 103 | 5.0 | 7.0 | 0.00 | 0.00 | 0.00 | 74 | 1021.6 |
| 20260507131559 | 52 | 58 | 3.0 | 7.0 | 0.00 | 0.00 | 0.00 | 74 | 1021.7 |
| 20260507131058 | 52 | 72 | 4.0 | 7.0 | 0.00 | 0.00 | 0.00 | 74 | 1021.6 |
| 20260507130559 | 52 | 55 | 4.0 | 7.0 | 0.00 | 0.00 | 0.00 | 73 | 1021.7 |
| 20260507130059 | 52 | 86 | 2.0 | 7.0 | 0.00 | 0.00 | 0.00 | 72 | 1021.7 |
| 20260507125559 | 52 | 97 | 3.0 | 7.0 | 0.00 | 0.00 | 0.00 | 71 | 1021.7 |
| 20260507125058 | 52 | 107 | 2.0 | 7.0 | 0.00 | 0.00 | 0.00 | 69 | 1021.7 |
| 20260507124558 | 52 | 92 | 3.0 | 7.0 | 0.00 | 0.00 | 0.00 | 71 | 1021.5 |
| 20260507124058 | 52 | 106 | 2.0 | 6.0 | 0.00 | 0.00 | 0.00 | 72 | 1021.6 |
| 20260507123558 | 52 | 90 | 4.0 | 6.0 | 0.00 | 0.00 | 0.00 | 70 | 1021.5 |
| 20260507123058 | 53 | 104 | 4.0 | 6.0 | 0.00 | 0.00 | 0.00 | 64 | 1021.5 |
| 20260507122559 | 53 | 107 | 1.0 | 3.0 | 0.00 | 0.00 | 0.00 | 73 | 1021.4 |
| 20260507122058 | 52 | 271 | 0.0 | 1.0 | 0.00 | 0.00 | 0.00 | 74 | 1021.5 |
| 20260507121558 | 52 | 271 | 0.0 | 2.0 | 0.00 | 0.00 | 0.00 | 74 | 1021.5 |
| 20260507121057 | 52 | 258 | 0.0 | 2.0 | 0.00 | 0.00 | 0.00 | 75 | 1021.4 |
| 20260507120557 | 52 | 341 | 0.0 | 3.0 | 0.00 | 0.00 | 0.00 | 75 | 1021.4 |
| 20260507120057 | 52 | 306 | 1.0 | 4.0 | 0.00 | 0.00 | 0.00 | 74 | 1021.5 |
| 20260507115558 | 52 | 312 | 0.0 | 5.0 | 0.00 | 0.00 | 0.00 | 74 | 1021.3 |
| 20260507115057 | 52 | 288 | 1.0 | 5.0 | 0.00 | 0.00 | 0.00 | 74 | 1021.2 |
| 20260507114557 | 52 | 117 | 0.0 | 4.0 | 0.00 | 0.00 | 0.00 | 75 | 1021.2 |
| 20260507114057 | 52 | 290 | 0.0 | 5.0 | 0.00 | 0.00 | 0.00 | 75 | 1021.2 |
| 20260507113556 | 52 | 18 | 2.0 | 5.0 | 0.00 | 0.00 | 0.00 | 74 | 1021.1 |
| 20260507113057 | 52 | 286 | 3.0 | 5.0 | 0.00 | 0.00 | 0.00 | 74 | 1021.1 |
| 20260507112606 | 51 | 237 | 1.0 | 5.0 | 0.00 | 0.00 | 0.00 | 74 | 1021.0 |
| 20260507112056 | 51 | 333 | 2.0 | 6.0 | 0.00 | 0.00 | 0.00 | 74 | 1021.0 |
| 20260507111556 | 51 | 282 | 2.0 | 12.0 | 0.00 | 0.00 | 0.00 | 75 | 1020.8 |
| 20260507111056 | 51 | 17 | 4.0 | 14.0 | 0.00 | 0.00 | 0.00 | 75 | 1020.8 |
| 20260507110556 | 51 | 293 | 11.0 | 15.0 | 0.00 | 0.00 | 0.00 | 74 | 1021.0 |
| 20260507110056 | 51 | 290 | 10.0 | 18.0 | 0.00 | 0.00 | 0.00 | 75 | 1020.8 |
| 20260507105556 | 52 | 283 | 9.0 | 20.0 | 0.00 | 0.00 | 0.00 | 73 | 1020.6 |
| 20260507105056 | 53 | 288 | 10.0 | 20.0 | 0.00 | 0.00 | 0.00 | 70 | 1020.5 |
| 20260507104556 | 54 | 281 | 13.0 | 20.0 | 0.00 | 0.00 | 0.00 | 67 | 1020.4 |
| 20260507104056 | 55 | 299 | 6.0 | 19.0 | 0.00 | 0.00 | 0.00 | 67 | 1020.3 |
| 20260507103555 | 55 | 303 | 11.0 | 19.0 | 0.00 | 0.00 | 0.00 | 65 | 1020.2 |
| 20260507103055 | 56 | 303 | 13.0 | 22.0 | 0.00 | 0.00 | 0.00 | 66 | 1020.3 |
| 20260507102556 | 56 | 283 | 16.0 | 22.0 | 0.00 | 0.00 | 0.00 | 65 | 1020.2 |
| 20260507102055 | 57 | 281 | 15.0 | 21.0 | 0.00 | 0.00 | 0.00 | 65 | 1020.2 |
| 20260507101555 | 57 | 271 | 11.0 | 18.0 | 0.00 | 0.00 | 0.00 | 64 | 1020.2 |
| 20260507101055 | 57 | 347 | 8.0 | 19.0 | 0.00 | 0.00 | 0.00 | 65 | 1020.3 |
| 20260507100555 | 57 | 264 | 9.0 | 19.0 | 0.00 | 0.00 | 0.00 | 64 | 1020.2 |
| 20260507100055 | 57 | 279 | 8.0 | 14.0 | 0.00 | 0.00 | 0.00 | 63 | 1020.3 |
| 20260507095554 | 58 | 295 | 3.0 | 13.0 | 0.00 | 0.00 | 0.00 | 61 | 1020.1 |
| 20260507095054 | 57 | 293 | 6.0 | 13.0 | 0.00 | 0.00 | 0.00 | 62 | 1020.2 |
| 20260507094554 | 57 | 286 | 8.0 | 13.0 | 0.00 | 0.00 | 0.00 | 61 | 1020.1 |
| 20260507094054 | 58 | 272 | 5.0 | 10.0 | 0.00 | 0.00 | 0.00 | 59 | 1020.1 |
| 20260507093554 | 58 | 293 | 5.0 | 10.0 | 0.00 | 0.00 | 0.00 | 58 | 1020.1 |
| 20260507093055 | 58 | 207 | 0.0 | 5.0 | 0.00 | 0.00 | 0.00 | 61 | 1020.0 |
| 20260507092554 | 59 | 182 | 2.0 | 5.0 | 0.00 | 0.00 | 0.00 | 59 | 1019.9 |
| 20260507092054 | 58 | 212 | 2.0 | 5.0 | 0.00 | 0.00 | 0.00 | 61 | 1019.9 |
| 20260507091553 | 58 | 243 | 2.0 | 4.0 | 0.00 | 0.00 | 0.00 | 63 | 1019.9 |
| 20260507091054 | 58 | 159 | 1.0 | 3.0 | 0.00 | 0.00 | 0.00 | 66 | 1019.9 |
| 20260507090553 | 57 | 245 | 0.0 | 1.0 | 0.00 | 0.00 | 0.00 | 65 | 1020.1 |
| 20260507090055 | 56 | 233 | 0.0 | 1.0 | 0.00 | 0.00 | 0.00 | 64 | 1020.1 |
| 20260507085554 | 56 | 158 | 0.0 | 1.0 | 0.00 | 0.00 | 0.00 | 66 | 1020.1 |
| 20260507085053 | 56 | 227 | 0.0 | 2.0 | 0.00 | 0.00 | 0.00 | 63 | 1020.1 |
| 20260507084553 | 56 | 159 | 1.0 | 2.0 | 0.00 | 0.00 | 0.00 | 66 | 1020.1 |
| 20260507084053 | 56 | 217 | 1.0 | 2.0 | 0.00 | 0.00 | 0.00 | 65 | 1020.1 |
| 20260507083553 | 56 | 196 | 0.0 | 2.0 | 0.00 | 0.00 | 0.00 | 65 | 1020.1 |
| 20260507083052 | 55 | 113 | 0.0 | 1.0 | 0.00 | 0.00 | 0.00 | 67 | 1020.1 |
| 20260507082552 | 54 | 247 | 0.0 | 3.0 | 0.00 | 0.00 | 0.00 | 67 | 1020.1 |
| 20260507082052 | 54 | 276 | 1.0 | 4.0 | 0.00 | 0.00 | 0.00 | 66 | 1020.1 |
| 20260507081552 | 54 | 290 | 1.0 | 6.0 | 0.00 | 0.00 | 0.00 | 67 | 1020.1 |
| 20260507081053 | 54 | 283 | 3.0 | 6.0 | 0.00 | 0.00 | 0.00 | 70 | 1020.1 |
| 20260507080553 | 54 | 281 | 4.0 | 5.0 | 0.00 | 0.00 | 0.00 | 69 | 1020.2 |
| 20260507080053 | 54 | 274 | 2.0 | 5.0 | 0.00 | 0.00 | 0.00 | 69 | 1020.1 |
| 20260507075552 | 54 | 265 | 2.0 | 4.0 | 0.00 | 0.00 | 0.00 | 70 | 1020.1 |
| 20260507075051 | 54 | 272 | 1.0 | 3.0 | 0.00 | 0.00 | 0.00 | 68 | 1020.1 |
| 20260507074551 | 54 | 20 | 0.0 | 2.0 | 0.00 | 0.00 | 0.00 | 71 | 1020.1 |
| 20260507074051 | 54 | 10 | 0.0 | 2.0 | 0.00 | 0.00 | 0.00 | 72 | 1020.2 |
| 20260507073552 | 53 | 313 | 0.0 | 1.0 | 0.00 | 0.00 | 0.00 | 73 | 1020.2 |
| 20260507073053 | 53 | 286 | 0.0 | 1.0 | 0.00 | 0.00 | 0.00 | 74 | 1020.2 |
| 20260507072552 | 53 | 337 | 0.0 | 2.0 | 0.00 | 0.00 | 0.00 | 74 | 1020.1 |
| 20260507072051 | 53 | 300 | 1.0 | 2.0 | 0.00 | 0.00 | 0.00 | 74 | 1020.1 |
| 20260507071551 | 53 | 288 | 0.0 | 1.0 | 0.00 | 0.00 | 0.00 | 74 | 1020.1 |
| 20260507071050 | 53 | 271 | 0.0 | 1.0 | 0.00 | 0.00 | 0.00 | 74 | 1020.1 |
| 20260507070551 | 52 | 266 | 0.0 | 0.0 | 0.00 | 0.00 | 0.00 | 74 | 1020.1 |
| 20260507070050 | 52 | 248 | 0.0 | 0.0 | 0.00 | 0.00 | 0.00 | 74 | 1020.1 |
| 20260507065550 | 52 | 190 | 0.0 | 0.0 | 0.00 | 0.00 | 0.00 | 74 | 1020.1 |
| 20260507065051 | 52 | 121 | 0.0 | 0.0 | 0.00 | 0.00 | 0.00 | 75 | 1020.0 |
| 20260507064550 | 52 | 121 | 0.0 | 0.0 | 0.00 | 0.00 | 0.00 | 75 | 1020.1 |
| 20260507064051 | 51 | 121 | 0.0 | 0.0 | 0.00 | 0.00 | 0.00 | 75 | 1020.1 |
| 20260507063551 | 51 | 121 | 0.0 | 0.0 | 0.00 | 0.00 | 0.00 | 75 | 1020.1 |
| 20260507063049 | 51 | 238 | 0.0 | 0.0 | 0.00 | 0.00 | 0.00 | 75 | 1020.1 |
| 20260507062549 | 51 | 238 | 0.0 | 0.0 | 0.00 | 0.00 | 0.00 | 74 | 1020.0 |
| 20260507062049 | 51 | 238 | 0.0 | 0.0 | 0.00 | 0.00 | 0.00 | 74 | 1020.0 |
| 20260507061550 | 51 | 255 | 0.0 | 0.0 | 0.00 | 0.00 | 0.00 | 74 | 1020.0 |
| 20260507061047 | 51 | 272 | 0.0 | 0.0 | 0.00 | 0.00 | 0.00 | 74 | 1020.0 |
| 20260507060547 | 51 | 272 | 0.0 | 0.0 | 0.00 | 0.00 | 0.00 | 74 | 1019.9 |
| 20260507060046 | 51 | 272 | 0.0 | 0.0 | 0.00 | 0.00 | 0.00 | 70 | 1019.8 |
| 20260507055545 | 50 | 272 | 0.0 | 0.0 | 0.00 | 0.00 | 0.00 | 71 | 1019.9 |
| 20260507055045 | 50 | 272 | 0.0 | 0.0 | 0.00 | 0.00 | 0.00 | 69 | 1019.9 |
| 20260507054543 | 50 | 272 | 0.0 | 0.0 | 0.00 | 0.00 | 0.00 | 69 | 1019.8 |
| 20260507054042 | 50 | 272 | 0.0 | 0.0 | 0.00 | 0.00 | 0.00 | 66 | 1019.7 |
| 20260507053543 | 49 | 272 | 0.0 | 0.0 | 0.00 | 0.00 | 0.00 | 65 | 1019.7 |
| 20260507053041 | 49 | 272 | 0.0 | 0.0 | 0.00 | 0.00 | 0.00 | 63 | 1019.7 |
| 20260507052540 | 49 | 272 | 0.0 | 0.0 | 0.00 | 0.00 | 0.00 | 59 | 1019.4 |
| 20260507052041 | 49 | 272 | 0.0 | 0.0 | 0.00 | 0.00 | 0.00 | 54 | 1019.4 |
| 20260507051540 | 49 | 259 | 0.0 | 0.0 | 0.00 | 0.00 | 0.00 | 55 | 1019.4 |
| 20260507051039 | 49 | 293 | 0.0 | 0.0 | 0.00 | 0.00 | 0.00 | 57 | 1019.4 |
| 20260507050539 | 49 | 293 | 0.0 | 0.0 | 0.00 | 0.00 | 0.00 | 59 | 1019.3 |
| 20260507050039 | 49 | 292 | 0.0 | 0.0 | 0.00 | 0.00 | 0.00 | 60 | 1019.3 |
| 20260507045537 | 49 | 293 | 0.0 | 0.0 | 0.00 | 0.00 | 0.00 | 59 | 1019.4 |
| 20260507045037 | 49 | 293 | 0.0 | 0.0 | 0.00 | 0.00 | 0.00 | 57 | 1019.3 |
| 20260507044538 | 49 | 292 | 0.0 | 0.0 | 0.00 | 0.00 | 0.00 | 59 | 1019.2 |
| 20260507044035 | 48 | 296 | 0.0 | 0.0 | 0.00 | 0.00 | 0.00 | 58 | 1019.1 |
| 20260507043534 | 48 | 288 | 0.0 | 0.0 | 0.00 | 0.00 | 0.00 | 61 | 1019.2 |
| 20260507043035 | 48 | 348 | 0.0 | 0.0 | 0.00 | 0.00 | 0.00 | 60 | 1019.1 |
| 20260507042535 | 48 | 313 | 0.0 | 0.0 | 0.00 | 0.00 | 0.00 | 60 | 1019.1 |
| 20260507042035 | 48 | 329 | 0.0 | 0.0 | 0.00 | 0.00 | 0.00 | 57 | 1019.1 |
| 20260507041535 | 47 | 327 | 0.0 | 0.0 | 0.00 | 0.00 | 0.00 | 53 | 1019.1 |
| 20260507041034 | 47 | 290 | 0.0 | 0.0 | 0.00 | 0.00 | 0.00 | 48 | 1018.9 |
| 20260507040534 | 47 | 290 | 0.0 | 0.0 | 0.00 | 0.00 | 0.00 | 47 | 1018.9 |
| 20260507040035 | 47 | 114 | 0.0 | 0.0 | 0.00 | 0.00 | 0.00 | 48 | 1018.8 |
| 20260507035534 | 47 | 114 | 0.0 | 0.0 | 0.00 | 0.00 | 0.00 | 49 | 1018.7 |
| 20260507035034 | 47 | 114 | 0.0 | 0.0 | 0.00 | 0.00 | 0.00 | 50 | 1018.8 |
| 20260507034534 | 47 | 114 | 0.0 | 0.0 | 0.00 | 0.00 | 0.00 | 51 | 1018.6 |
| 20260507034034 | 47 | 114 | 0.0 | 0.0 | 0.00 | 0.00 | 0.00 | 55 | 1018.6 |
| 20260507033535 | 47 | 120 | 0.0 | 0.0 | 0.00 | 0.00 | 0.00 | 56 | 1018.7 |
| 20260507033035 | 47 | 283 | 0.0 | 0.0 | 0.00 | 0.00 | 0.00 | 50 | 1018.7 |
| 20260507032534 | 47 | 282 | 0.0 | 0.0 | 0.00 | 0.00 | 0.00 | 51 | 1018.6 |
| 20260507032034 | 47 | 278 | 0.0 | 0.0 | 0.00 | 0.00 | 0.00 | 55 | 1018.6 |
| 20260507031535 | 47 | 312 | 0.0 | 0.0 | 0.00 | 0.00 | 0.00 | 53 | 1018.6 |
| 20260507031034 | 47 | 305 | 0.0 | 0.0 | 0.00 | 0.00 | 0.00 | 56 | 1018.7 |
| 20260507030535 | 47 | 347 | 0.0 | 0.0 | 0.00 | 0.00 | 0.00 | 56 | 1018.6 |
| 20260507030034 | 47 | 312 | 0.0 | 0.0 | 0.00 | 0.00 | 0.00 | 58 | 1018.6 |
| 20260507025534 | 47 | 276 | 0.0 | 0.0 | 0.00 | 0.00 | 0.00 | 61 | 1018.6 |
| 20260507025035 | 47 | 276 | 0.0 | 0.0 | 0.00 | 0.00 | 0.00 | 58 | 1018.5 |
| 20260507024534 | 47 | 276 | 0.0 | 0.0 | 0.00 | 0.00 | 0.00 | 58 | 1018.5 |
| 20260507024034 | 47 | 275 | 0.0 | 0.0 | 0.00 | 0.00 | 0.00 | 57 | 1018.6 |
| 20260507023534 | 47 | 305 | 0.0 | 1.0 | 0.00 | 0.00 | 0.00 | 56 | 1018.6 |
| 20260507023034 | 47 | 305 | 0.0 | 1.0 | 0.00 | 0.00 | 0.00 | 58 | 1018.5 |
| 20260507022534 | 47 | 110 | 0.0 | 0.0 | 0.00 | 0.00 | 0.00 | 65 | 1018.5 |
| 20260507022036 | 47 | 110 | 0.0 | 0.0 | 0.00 | 0.00 | 0.00 | 70 | 1018.6 |
| 20260507021534 | 48 | 110 | 0.0 | 0.0 | 0.00 | 0.00 | 0.00 | 72 | 1018.5 |
| 20260507021035 | 49 | 296 | 0.0 | 0.0 | 0.00 | 0.00 | 0.00 | 71 | 1018.4 |
| 20260507020535 | 49 | 295 | 0.0 | 0.0 | 0.00 | 0.00 | 0.00 | 69 | 1018.3 |
| 20260507020034 | 48 | 295 | 0.0 | 0.0 | 0.00 | 0.00 | 0.00 | 68 | 1018.1 |
| 20260507015534 | 48 | 292 | 0.0 | 1.0 | 0.00 | 0.00 | 0.00 | 69 | 1018.3 |
| 20260507015034 | 48 | 292 | 0.0 | 1.0 | 0.00 | 0.00 | 0.00 | 69 | 1018.3 |
| 20260507014534 | 48 | 288 | 0.0 | 1.0 | 0.00 | 0.00 | 0.00 | 68 | 1018.1 |
| 20260507014034 | 48 | 288 | 0.0 | 1.0 | 0.00 | 0.00 | 0.00 | 68 | 1018.1 |
| 20260507013534 | 48 | 271 | 0.0 | 1.0 | 0.00 | 0.00 | 0.00 | 68 | 1018.0 |
| 20260507013034 | 49 | 279 | 0.0 | 1.0 | 0.00 | 0.00 | 0.00 | 68 | 1018.1 |
| 20260507012534 | 49 | 323 | 0.0 | 1.0 | 0.00 | 0.00 | 0.00 | 67 | 1017.9 |
| 20260507012034 | 49 | 353 | 0.0 | 1.0 | 0.00 | 0.00 | 0.00 | 65 | 1017.8 |
| 20260507011534 | 49 | 31 | 0.0 | 1.0 | 0.00 | 0.00 | 0.00 | 66 | 1017.9 |
| 20260507011035 | 49 | 299 | 0.0 | 2.0 | 0.00 | 0.00 | 0.00 | 67 | 1017.8 |
| 20260507010534 | 48 | 313 | 0.0 | 2.0 | 0.00 | 0.00 | 0.00 | 69 | 1017.9 |
| 20260507010035 | 48 | 331 | 0.0 | 3.0 | 0.00 | 0.00 | 0.00 | 68 | 1017.8 |
| 20260507005535 | 48 | 345 | 0.0 | 4.0 | 0.00 | 0.00 | 0.00 | 68 | 1017.9 |
| 20260507005035 | 48 | 302 | 2.0 | 4.0 | 0.00 | 0.00 | 0.00 | 65 | 1017.9 |
| 20260507004535 | 47 | 295 | 2.0 | 4.0 | 0.00 | 0.00 | 0.00 | 62 | 1017.9 |
| 20260507004035 | 47 | 296 | 0.0 | 3.0 | 0.00 | 0.00 | 0.00 | 62 | 1017.9 |
| 20260507003534 | 47 | 305 | 2.0 | 3.0 | 0.00 | 0.00 | 0.00 | 62 | 1017.9 |
| 20260507003034 | 47 | 289 | 2.0 | 5.0 | 0.00 | 0.00 | 0.00 | 63 | 1018.0 |
| 20260507002534 | 47 | 282 | 3.0 | 5.0 | 0.00 | 0.00 | 0.00 | 63 | 1018.0 |
| 20260507002034 | 47 | 292 | 2.0 | 4.0 | 0.00 | 0.00 | 0.00 | 61 | 1018.0 |
| 20260507001534 | 47 | 285 | 2.0 | 3.0 | 0.00 | 0.00 | 0.00 | 68 | 1017.9 |
| 20260507001035 | 47 | 317 | 0.0 | 5.0 | 0.00 | 0.00 | 0.00 | 66 | 1017.9 |
| 20260507000534 | 48 | 296 | 2.0 | 5.0 | 0.00 | 0.00 | 0.00 | 70 | 1017.9 |
| 20260507000034 | 48 | 272 | 3.0 | 4.0 | 0.00 | 0.00 | 0.00 | 63 | 1017.8 |
| 20260506235534 | 48 | 302 | 0.0 | 2.0 | 0.00 | 0.00 | 0.00 | 68 | 1017.8 |
| 20260506235035 | 49 | 296 | 0.0 | 2.0 | 0.00 | 0.00 | 0.00 | 69 | 1017.9 |
| 20260506234534 | 49 | 298 | 0.0 | 2.0 | 0.00 | 0.00 | 0.00 | 73 | 1017.9 |
| 20260506234034 | 49 | 0 | 0.0 | 0.0 | 0.00 | 0.00 | 0.00 | 73 | 1017.8 |
| 20260506233534 | 49 | 285 | 0.0 | 0.0 | 0.00 | 0.00 | 0.00 | 72 | 1017.8 |
| 20260506233034 | 49 | 283 | 0.0 | 1.0 | 0.00 | 0.00 | 0.00 | 72 | 1017.8 |
| 20260506232535 | 49 | 281 | 0.0 | 1.0 | 0.00 | 0.00 | 0.00 | 72 | 1017.8 |
| 20260506232034 | 49 | 279 | 0.0 | 3.0 | 0.00 | 0.00 | 0.00 | 72 | 1017.9 |
| 20260506231534 | 49 | 310 | 0.0 | 3.0 | 0.00 | 0.00 | 0.00 | 68 | 1017.9 |
| 20260506231035 | 50 | 300 | 2.0 | 3.0 | 0.00 | 0.00 | 0.00 | 72 | 1017.9 |
| 20260506230534 | 50 | 313 | 2.0 | 3.0 | 0.00 | 0.00 | 0.00 | 72 | 1017.9 |
| 20260506230034 | 50 | 312 | 0.0 | 3.0 | 0.00 | 0.00 | 0.00 | 72 | 1017.8 |
| 20260506225535 | 49 | 345 | 1.0 | 3.0 | 0.00 | 0.00 | 0.00 | 70 | 1017.8 |
| 20260506225034 | 49 | 306 | 0.0 | 3.0 | 0.00 | 0.00 | 0.00 | 66 | 1017.8 |
| 20260506224534 | 49 | 310 | 1.0 | 3.0 | 0.00 | 0.00 | 0.00 | 72 | 1017.8 |
| 20260506224035 | 50 | 345 | 0.0 | 2.0 | 0.00 | 0.00 | 0.00 | 71 | 1017.7 |
| 20260506223534 | 50 | 295 | 0.0 | 2.0 | 0.00 | 0.00 | 0.00 | 72 | 1017.8 |
| 20260506223034 | 50 | 319 | 0.0 | 3.0 | 0.00 | 0.00 | 0.00 | 73 | 1017.7 |
| 20260506222533 | 50 | 300 | 1.0 | 3.0 | 0.00 | 0.00 | 0.00 | 73 | 1017.7 |
| 20260506222035 | 50 | 278 | 1.0 | 3.0 | 0.00 | 0.00 | 0.00 | 72 | 1017.6 |
| 20260506221534 | 50 | 306 | 2.0 | 3.0 | 0.00 | 0.00 | 0.00 | 70 | 1017.5 |
| 20260506221034 | 50 | 266 | 0.0 | 3.0 | 0.00 | 0.00 | 0.00 | 72 | 1017.4 |
| 20260506220533 | 50 | 309 | 0.0 | 3.0 | 0.00 | 0.00 | 0.00 | 72 | 1017.4 |
| 20260506220034 | 51 | 358 | 1.0 | 3.0 | 0.00 | 0.00 | 0.00 | 72 | 1017.2 |
| 20260506215534 | 51 | 324 | 1.0 | 4.0 | 0.00 | 0.00 | 0.00 | 73 | 1017.1 |
| 20260506215034 | 51 | 306 | 2.0 | 4.0 | 0.00 | 0.00 | 0.00 | 73 | 1017.1 |
| 20260506214535 | 51 | 299 | 1.0 | 4.0 | 0.00 | 0.00 | 0.00 | 73 | 1017.2 |
| 20260506214034 | 51 | 283 | 1.0 | 3.0 | 0.00 | 0.00 | 0.00 | 73 | 1017.1 |
| 20260506213535 | 51 | 302 | 1.0 | 7.0 | 0.00 | 0.00 | 0.00 | 74 | 1017.1 |
| 20260506213034 | 52 | 353 | 2.0 | 10.0 | 0.00 | 0.00 | 0.00 | 74 | 1017.0 |
| 20260506212534 | 52 | 272 | 6.0 | 10.0 | 0.00 | 0.00 | 0.00 | 74 | 1016.9 |
| 20260506212034 | 53 | 296 | 4.0 | 12.0 | 0.00 | 0.00 | 0.00 | 74 | 1016.7 |
| 20260506211534 | 53 | 290 | 9.0 | 12.0 | 0.00 | 0.00 | 0.00 | 74 | 1016.7 |
| 20260506211035 | 53 | 278 | 4.0 | 11.0 | 0.00 | 0.00 | 0.00 | 74 | 1016.7 |
| 20260506210535 | 53 | 276 | 4.0 | 11.0 | 0.00 | 0.00 | 0.00 | 74 | 1016.5 |
| 20260506210034 | 53 | 289 | 3.0 | 11.0 | 0.00 | 0.00 | 0.00 | 74 | 1016.5 |
| 20260506205534 | 53 | 281 | 6.0 | 10.0 | 0.00 | 0.00 | 0.00 | 74 | 1016.4 |
| 20260506205034 | 53 | 279 | 4.0 | 10.0 | 0.00 | 0.00 | 0.00 | 74 | 1016.3 |
| 20260506204534 | 53 | 283 | 7.0 | 12.0 | 0.00 | 0.00 | 0.00 | 74 | 1016.3 |
| 20260506204035 | 54 | 276 | 7.0 | 12.0 | 0.00 | 0.00 | 0.00 | 74 | 1016.3 |
| 20260506203534 | 54 | 271 | 6.0 | 12.0 | 0.00 | 0.00 | 0.00 | 74 | 1016.1 |
| 20260506203034 | 54 | 290 | 5.0 | 12.0 | 0.00 | 0.00 | 0.00 | 74 | 1016.2 |
| 20260506202534 | 54 | 255 | 5.0 | 13.0 | 0.00 | 0.00 | 0.00 | 74 | 1016.1 |
| 20260506202034 | 55 | 296 | 10.0 | 13.0 | 0.00 | 0.00 | 0.00 | 74 | 1016.0 |
| 20260506201535 | 55 | 309 | 7.0 | 11.0 | 0.00 | 0.00 | 0.00 | 73 | 1015.8 |
| 20260506201035 | 55 | 282 | 5.0 | 10.0 | 0.00 | 0.00 | 0.00 | 73 | 1015.7 |
| 20260506200534 | 55 | 282 | 7.0 | 13.0 | 0.00 | 0.00 | 0.00 | 72 | 1015.8 |
| 20260506200035 | 55 | 266 | 8.0 | 13.0 | 0.00 | 0.00 | 0.00 | 72 | 1015.9 |
| 20260506195535 | 56 | 272 | 7.0 | 13.0 | 0.00 | 0.00 | 0.00 | 71 | 1015.8 |
| 20260506195034 | 56 | 276 | 8.0 | 16.0 | 0.00 | 0.00 | 0.00 | 70 | 1015.8 |
| 20260506194534 | 56 | 264 | 8.0 | 16.0 | 0.00 | 0.00 | 0.00 | 69 | 1015.6 |
| 20260506194034 | 57 | 269 | 9.0 | 16.0 | 0.00 | 0.00 | 0.00 | 68 | 1015.6 |
| 20260506193534 | 57 | 281 | 10.0 | 14.0 | 0.00 | 0.00 | 0.00 | 66 | 1015.4 |
| 20260506193034 | 58 | 314 | 5.0 | 10.0 | 0.00 | 0.00 | 0.00 | 65 | 1015.4 |
| 20260506192534 | 58 | 282 | 4.0 | 9.0 | 0.00 | 0.00 | 0.00 | 65 | 1015.3 |
| 20260506192034 | 58 | 264 | 2.0 | 12.0 | 0.00 | 0.00 | 0.00 | 64 | 1015.3 |
| 20260506191534 | 58 | 17 | 4.0 | 16.0 | 0.00 | 0.00 | 0.00 | 64 | 1015.1 |
| 20260506191034 | 58 | 298 | 3.0 | 16.0 | 0.00 | 0.00 | 0.00 | 64 | 1014.8 |
| 20260506190535 | 58 | 259 | 9.0 | 15.0 | 0.00 | 0.00 | 0.00 | 64 | 1014.8 |
| 20260506190035 | 58 | 296 | 3.0 | 12.0 | 0.00 | 0.00 | 0.00 | 63 | 1014.5 |
| 20260506185534 | 59 | 282 | 6.0 | 10.0 | 0.00 | 0.00 | 0.00 | 62 | 1014.3 |
| 20260506185034 | 59 | 302 | 5.0 | 9.0 | 0.00 | 0.00 | 0.00 | 62 | 1014.3 |
| 20260506184534 | 59 | 290 | 5.0 | 10.0 | 0.00 | 0.00 | 0.00 | 61 | 1014.0 |
| 20260506184034 | 60 | 271 | 6.0 | 10.0 | 0.00 | 0.00 | 0.00 | 60 | 1013.7 |
| 20260506183535 | 60 | 306 | 2.0 | 15.0 | 0.00 | 0.00 | 0.00 | 60 | 1013.6 |
| 20260506183034 | 60 | 258 | 4.0 | 19.0 | 0.00 | 0.00 | 0.00 | 59 | 1013.6 |
| 20260506182534 | 61 | 285 | 11.0 | 19.0 | 0.00 | 0.00 | 0.00 | 58 | 1013.4 |